Weather History for PAGM - May, 2014

Change the Weather History Date:

Saturday, May 17, 2014

  Actual Average Record
Temperature  
Mean Temperature 30 °F -  
Max Temperature 33 °F 33 °F 37 °F (1999)
Min Temperature 28 °F 26 °F 17 °F (2013)
Degree Days  
Heating Degree Days 34    
Moisture  
Dew Point 28 °F    
Average Humidity 86    
Maximum Humidity 93    
Minimum Humidity 81    
Precipitation  
Precipitation 0.01 in - - ()
Sea Level Pressure  
Sea Level Pressure 30.29 in    
Wind  
Wind Speed 13 mph (WSW)    
Max Wind Speed 18 mph    
Max Gust Speed -    
Visibility 5 miles    
Events      
Averages and records for this station are not official NWS values.
T = Trace of Precipitation, MM = Missing Value Source: NWS Daily Summary

Daily Weather History Graph

Daily Weather History Graph

Search for Another Location

Airport or City:

Trip Planner

Search our weather history database for the weather conditions in past years. The results will help you decide how hot, cold, wet, or windy it might be!

Date:

Astronomy

May. 17, 2014 Rise Set
Actual Time 6:09 AM AKDT 12:39 AM AKDT
Civil Twilight 4:24 AM AKDT 2:29 AM AKDT
Nautical Twilight Sun does not set Sun does not set
Astronomical Twilight Sun does not set Sun does not set
Moon 2:49 AM AKDT (5/17) 9:15 AM AKDT (5/17)
Length of Visible Light 22h 05m
Length of Day
18h 30m
Waning Gibbous, 88% of the Moon is Illuminated
May 17
Waning Gibbous
May 21
Last Quarter
May 28
New
Jun 5
First Quarter
Jun 12
Full

Hourly Weather History & Observations

Time (AKDT) Temp. Windchill Dew Point Humidity Pressure Visibility Wind Dir Wind Speed Gust Speed Precip Events Conditions
12:16 AM 33.8 °F 24.3 °F 30.2 °F 87% 30.24 in 0.5 mi WSW 13.8 mph - N/A   Overcast
12:36 AM 33.8 °F 23.5 °F 30.2 °F 87% 30.24 in 0.5 mi WSW 16.1 mph - N/A   Overcast
12:56 AM 32.0 °F 20.8 °F 30.2 °F 93% 30.25 in 0.5 mi West 17.3 mph - N/A   Overcast
1:16 AM 32.0 °F 22.1 °F 30.2 °F 93% 30.25 in 0.2 mi West 13.8 mph - N/A   Overcast
1:36 AM 30.2 °F 18.1 °F 28.4 °F 93% 30.25 in 0.2 mi West 18.4 mph - N/A   Overcast
1:56 AM 30.2 °F 18.9 °F 28.4 °F 93% 30.26 in 0.5 mi WSW 16.1 mph - N/A   Overcast
2:16 AM 30.2 °F 18.9 °F 28.4 °F 93% 30.26 in 0.5 mi WSW 16.1 mph - N/A   Overcast
2:36 AM 30.2 °F 20.2 °F 28.4 °F 93% 30.25 in 0.8 mi WSW 12.7 mph - N/A   Overcast
2:56 AM 30.2 °F 19.8 °F 28.4 °F 93% 30.25 in 1.0 mi WSW 13.8 mph - N/A   Overcast
3:16 AM 30.2 °F 19.3 °F 28.4 °F 93% 30.25 in 0.5 mi WSW 15.0 mph - N/A   Overcast
3:36 AM 30.2 °F 19.8 °F 28.4 °F 93% 30.25 in 0.5 mi WSW 13.8 mph - N/A   Overcast
3:56 AM 30.2 °F 20.2 °F 28.4 °F 93% 30.25 in 0.5 mi WSW 12.7 mph - N/A   Overcast
4:16 AM 32.0 °F 22.1 °F 28.4 °F 87% 30.25 in 0.2 mi WSW 13.8 mph - N/A   Overcast
4:36 AM 30.2 °F 19.8 °F 28.4 °F 93% 30.25 in 0.5 mi WSW 13.8 mph - N/A   Overcast
4:56 AM 32.0 °F 22.1 °F 28.4 °F 87% 30.26 in 0.5 mi WSW 13.8 mph - N/A   Overcast
5:16 AM 32.0 °F 22.5 °F 28.4 °F 87% 30.26 in 0.5 mi West 12.7 mph - N/A   Overcast
5:36 AM 30.2 °F 19.3 °F 28.4 °F 93% 30.26 in 0.5 mi West 15.0 mph - N/A   Overcast
5:56 AM 30.2 °F 19.8 °F 26.6 °F 86% 30.26 in 0.2 mi West 13.8 mph - N/A   Overcast
6:16 AM 30.2 °F 19.8 °F 26.6 °F 86% 30.26 in 0.2 mi West 13.8 mph - N/A   Overcast
6:36 AM 30.2 °F 19.8 °F 26.6 °F 86% 30.27 in 0.2 mi WSW 13.8 mph - N/A   Overcast
6:56 AM 28.4 °F 18.5 °F 26.6 °F 93% 30.27 in 0.2 mi West 11.5 mph - N/A   Overcast
7:16 AM 30.2 °F 19.8 °F 26.6 °F 86% 30.27 in 0.2 mi West 13.8 mph - 0.01 in   Overcast
7:36 AM 28.4 °F 18.0 °F 26.6 °F 93% 30.27 in 0.2 mi WSW 12.7 mph - 0.01 in   Overcast
7:56 AM 30.2 °F 19.8 °F 26.6 °F 86% 30.27 in 0.2 mi WSW 13.8 mph - 0.01 in   Overcast
8:16 AM 30.2 °F 20.2 °F 26.6 °F 86% 30.27 in 0.2 mi WSW 12.7 mph - N/A   Overcast
8:36 AM 30.2 °F 20.8 °F 26.6 °F 86% 30.28 in 0.2 mi WSW 11.5 mph - N/A   Overcast
8:56 AM 30.2 °F 20.8 °F 26.6 °F 86% 30.28 in 0.2 mi West 11.5 mph - N/A   Overcast
9:16 AM 30.2 °F 21.3 °F 26.6 °F 86% 30.28 in 0.2 mi WSW 10.4 mph - N/A   Overcast
9:36 AM 30.2 °F 21.9 °F 26.6 °F 86% 30.28 in 0.5 mi SW 9.2 mph - N/A   Overcast
9:56 AM 30.2 °F 21.3 °F 28.4 °F 93% 30.28 in 0.8 mi SW 10.4 mph - N/A   Overcast
10:16 AM 30.2 °F 20.2 °F 28.4 °F 93% 30.29 in 0.5 mi SW 12.7 mph - N/A   Overcast
10:36 AM 32.0 °F 22.5 °F 28.4 °F 87% 30.29 in 0.5 mi SW 12.7 mph - N/A   Overcast
10:56 AM 33.8 °F 25.3 °F 30.2 °F 87% 30.30 in 4.0 mi SW 11.5 mph - N/A   Overcast
11:16 AM 33.8 °F 24.8 °F 30.2 °F 87% 30.29 in 10.0 mi WSW 12.7 mph - N/A   Mostly Cloudy
11:36 AM 33.8 °F 25.3 °F 30.2 °F 87% 30.29 in 10.0 mi WSW 11.5 mph - N/A   Partly Cloudy
11:56 AM 33.8 °F 25.8 °F 30.2 °F 87% 30.29 in 10.0 mi SW 10.4 mph - N/A   Clear
12:16 PM 33.8 °F 25.8 °F 28.4 °F 81% 30.29 in 10.0 mi SW 10.4 mph - N/A   Mostly Cloudy
12:36 PM 33.8 °F 26.4 °F 28.4 °F 81% 30.30 in 10.0 mi WSW 9.2 mph - N/A   Mostly Cloudy
12:56 PM 33.8 °F 26.4 °F 28.4 °F 81% 30.30 in 10.0 mi WSW 9.2 mph - N/A   Partly Cloudy
1:16 PM 33.8 °F 25.3 °F 28.4 °F 81% 30.30 in 10.0 mi WSW 11.5 mph - N/A   Clear
1:36 PM 33.8 °F 24.3 °F 28.4 °F 81% 30.31 in 10.0 mi West 13.8 mph - N/A   Clear
1:56 PM 33.8 °F 24.8 °F 28.4 °F 81% 30.31 in 10.0 mi West 12.7 mph - N/A   Clear
2:16 PM 33.8 °F 25.3 °F 28.4 °F 81% 30.31 in 10.0 mi West 11.5 mph - N/A   Clear
2:36 PM 33.8 °F 25.8 °F 28.4 °F 81% 30.32 in 10.0 mi West 10.4 mph - N/A   Clear
2:56 PM 33.8 °F 27.7 °F 28.4 °F 81% 30.32 in 10.0 mi West 6.9 mph - N/A   Clear
3:16 PM 33.8 °F 27.7 °F 28.4 °F 81% 30.31 in 10.0 mi WSW 6.9 mph - N/A   Clear
3:36 PM 33.8 °F 27.7 °F 28.4 °F 81% 30.32 in 10.0 mi SW 6.9 mph - N/A   Clear
3:56 PM 33.8 °F 27.7 °F 28.4 °F 81% 30.32 in 10.0 mi SSW 6.9 mph - N/A   Clear
4:16 PM 33.8 °F 27.7 °F 28.4 °F 81% 30.32 in 10.0 mi SW 6.9 mph - N/A   Clear
4:36 PM 33.8 °F 27.0 °F 28.4 °F 81% 30.31 in 10.0 mi SSW 8.1 mph - N/A   Clear
4:56 PM 33.8 °F 27.0 °F 28.4 °F 81% 30.31 in 10.0 mi SSW 8.1 mph - N/A   Clear
5:16 PM 33.8 °F 26.4 °F 28.4 °F 81% 30.31 in 10.0 mi SW 9.2 mph - N/A   Clear
5:36 PM 33.8 °F 27.0 °F 28.4 °F 81% 30.31 in 10.0 mi SW 8.1 mph - N/A   Clear
5:56 PM 33.8 °F 27.0 °F 28.4 °F 81% 30.31 in 10.0 mi SW 8.1 mph - N/A   Clear
6:16 PM 33.8 °F 27.0 °F 28.4 °F 81% 30.31 in 10.0 mi SW 8.1 mph - N/A   Clear
6:36 PM 33.8 °F 26.4 °F 28.4 °F 81% 30.31 in 10.0 mi SSW 9.2 mph - N/A   Clear
6:56 PM 33.8 °F 26.4 °F 28.4 °F 81% 30.31 in 10.0 mi SSW 9.2 mph - N/A   Clear
7:16 PM 33.8 °F 26.4 °F 28.4 °F 81% 30.31 in 10.0 mi SSW 9.2 mph - N/A   Mostly Cloudy
7:36 PM 33.8 °F 25.3 °F 28.4 °F 81% 30.31 in 10.0 mi SSW 11.5 mph - N/A   Scattered Clouds
7:56 PM 33.8 °F 25.8 °F 28.4 °F 81% 30.31 in 10.0 mi SSW 10.4 mph - N/A   Clear
8:16 PM 33.8 °F 25.8 °F 28.4 °F 81% 30.31 in 10.0 mi SW 10.4 mph - N/A   Mostly Cloudy
8:36 PM 33.8 °F 25.8 °F 28.4 °F 81% 30.31 in 10.0 mi SW 10.4 mph - N/A   Scattered Clouds
8:56 PM 33.8 °F 25.8 °F 28.4 °F 81% 30.31 in 10.0 mi SW 10.4 mph - N/A   Mostly Cloudy
9:16 PM 33.8 °F 26.4 °F 28.4 °F 81% 30.30 in 10.0 mi SW 9.2 mph - N/A   Scattered Clouds
9:36 PM 33.8 °F 25.8 °F 28.4 °F 81% 30.30 in 10.0 mi SW 10.4 mph - N/A   Partly Cloudy
9:56 PM 33.8 °F 24.8 °F 28.4 °F 81% 30.30 in 10.0 mi WSW 12.7 mph - N/A   Clear
10:16 PM 33.8 °F 24.8 °F 28.4 °F 81% 30.30 in 10.0 mi WSW 12.7 mph - N/A   Clear
10:36 PM 32.0 °F 23.0 °F 28.4 °F 87% 30.30 in 10.0 mi WSW 11.5 mph - N/A   Clear
10:56 PM 32.0 °F 23.0 °F 28.4 °F 87% 30.30 in 10.0 mi West 11.5 mph - N/A   Clear
11:16 PM 30.2 °F 19.8 °F 26.6 °F 86% 30.31 in 0.2 mi WSW 13.8 mph - N/A   Overcast
11:36 PM 28.4 °F 17.0 °F 26.6 °F 93% 30.30 in 0.2 mi WSW 15.0 mph - N/A   Overcast
11:56 PM 28.4 °F 17.0 °F 26.6 °F 93% 30.31 in 0.2 mi WSW 15.0 mph - N/A   Overcast